COSMOS 2251 DEB, 33982

Orbit data source: Space-Track

COSMOS 2251 DEB, 33982 is space debris in LEO originally from a launch on Wed, 16 Jun 1993 UTC launched from the Plesetsk Missile And Space Complex (PKMTR). The debris from Iridium 33, an American commercial communications satellite, has been tracked extensively since its accidental collision with the defunct Russian satellite Cosmos 2251 in 2009. This event, occurring at high speed in low Earth orbit (LEO), generated thousands of pieces of space debris, significantly increasing the risk of further collisions. The Iridium 33 debris cloud has impacted space traffic management and orbital debris mitigation strategies, making it a subject of ongoing study in space situational awareness.

Loading next visibility...
Identifier
33982, 1993-036FR
Orbit
LEO
Country
Flag of CISCIS
Related business
Manufacturer
Unknown
Mission
Spacecraft
Bus & Motor
Unknown
Mass
Unknown
Launch date (UTC)
1993-06-16 (33 years ago)
Launch vehicle
Unknown
Launch site
Plesetsk Missile And Space Complex (PKMTR)
Object type
Payload
Rocket body
Debris
Shape & HBR
Unknown shape, 0.1 m
Radar Cross Section
Small (<0.1 m²)

Expand to show TLE details & history
Last TLE update: 13 hours ago

TLE from 13 hours ago
0 COSMOS 2251 DEB
1 33982U 93036FR  26037.62957191  .00002428  00000-0  48584-3 0  9992
2 33982  74.0680 253.4300 0076271 284.0563 138.2251 14.60578090899750
Epoch: 2026-02-06T15:06Z
TLE epoch observation values (Epoch: 2026-02-06T15:06:35.013Z)
Latitude
58.94497°
Longitude
-81.84735°
Altitude
741.338 km
Speed
7.469 km/s
True Right ascension
18h 46m 15s
True Declination
58° 47' 33"
Sunlit
Object was in daylight at epoch
Visualization orbit readout
Latitude
Unknown
Longitude
Unknown
Altitude
Unknown
Speed
Unknown
Apparent Right ascension
Unknown
Apparent Declination
Unknown
Sunlit
N/A
Visualization observer readout
Local Sidereal Time
05:57:24
Azimuth
Unknown
Elevation
Unknown
Doppler factor
Unknown
Orbital elements
Apogee altitude
742.803 km
Perigee altitude
635.001 km
Semi-major axis
7,067.039 km
Eccentricity
0.00763
Inclination
74.068°
RAAN
253.43°
Arg. of periapsis
284.0563°
True anomaly
138.80324°
Mean anomaly
138.2251°
Eccentric anomaly
138.51458°
Mean motion
3.65331 °/min
Orbital period
98.54 mins
BSTAR
0.00048584
Loading maneuver chart data...
Computing Atmospheric mass density...

Documentation

Showing up to 5 results
|